Location: Los Gatos B&B
(42.6926°N, 77.0646°W)
Time: 01:46:03

SL-16 R/B - Visible Passes

Search period start: 26 October 2016 00:00
Search period end: 05 November 2016 00:00
Orbit: 840 x 849 km, 71.0° (Epoch: 25 October)

Date Brightness Start Highest point End Pass type
(mag) Time Alt. Az. Time Alt. Az. Time Alt. Az.
31 Oct 4.7 21:21:36 10° N 21:21:57 12° N 21:21:57 12° N visible
01 Nov 4.5 21:07:34 10° N 21:08:17 13° N 21:08:17 13° N visible
02 Nov 4.3 20:53:32 10° N 20:54:40 15° N 20:54:40 15° N visible
03 Nov 4.1 20:39:30 10° N 20:41:06 18° N 20:41:06 18° N visible
04 Nov 3.9 20:25:28 10° N 20:27:34 20° N 20:27:34 20° N visible
